Location: Asheville, NC
(35.6000°N, 82.5500°W)
Time: 06:19:37
(UTC-05:00)

Hubble Space Telescope - Pass Details

Date: 17 February 2018
Orbit: 537 x 541 km, 28.5° (Epoch: 24 February)

Event Time Altitude Azimuth Distance (km) Brightness Sun altitude
Exits shadow 06:10:03 - 213° (SSW) 2,516 3.9 -13.8°
Reaches altitude 10° 06:12:55 10° 187° (S) 1,778 3.4 -13.2°
Maximum altitude 06:14:50 13° 159° (SSE) 1,599 3.5 -12.8°
Drops below altitude 10° 06:16:44 10° 131° (SE) 1,782 4.3 -12.4°
Sets 06:20:05 0° 103° (ESE) 2,676 6.4 -11.8°
